Regional Weather Roundup
Issued by NWS

Home | Current Version | Previous Version | Text Only | Print | Product List | Glossary Off
Versions: 1 2 3 4 5 6 7 8 9 10 11 12 13 14 15 16 17 18 19 20 21 22 23 24 25 26 27 28 29 30 31 32 33 34 35 36 37 38 39 40 41 42 43 44 45 46 47 48 49 50

000
ASUS45 KBOI 241810
RWRID
WEATHER ROUNDUP FOR IDAHO
NATIONAL WEATHER SERVICE BOISE ID
1200 PM MDT FRI APR 24 2015

NOTE: "FAIR" INDICATES FEW OR NO CLOUDS BELOW 12000 FEET
WITH NO SIGNIFICANT WEATHER AND/OR OBSTRUCTIONS TO VISIBILITY

IDZ012-014-241900-
SOUTHWEST IDAHO


CITY           SKY/WX    TMP DP  RH WIND       PRES   REMARKS
BOISE          CLOUDY    50  40  68 NW6       29.76R
CALDWELL       CLOUDY    50  36  57 CALM      29.79R
MOUNTAIN HOME  CLOUDY    51  39  62 W10       29.76R
$$

IDZ016-017-241900-
SOUTHCENTRAL IDAHO


CITY           SKY/WX    TMP DP  RH WIND       PRES   REMARKS
BURLEY         CLOUDY    50  38  63 W18G29    29.72R
JEROME         CLOUDY    46  36  68 SW21      29.75R
TWIN FALLS     CLOUDY    45  35  68 SW17      29.76S
$$

IDZ019>023-241900-
SOUTHEAST IDAHO


CITY           SKY/WX    TMP DP  RH WIND       PRES   REMARKS
IDAHO FALLS    MOSUNNY   60  37  42 SW18G24   29.68F
POCATELLO      MOSUNNY   57  40  52 W20       29.71S
REXBURG        MOSUNNY   58  33  39 SW14G22   29.67F
$$

IDZ006-010-011-018-031-032-241900-
CENTRAL IDAHO MOUNTAINS


CITY           SKY/WX    TMP DP  RH WIND       PRES   REMARKS
MCCALL         LGT SNOW  34  32  92 W6        29.74R FOG     WCI  29
HAILEY         LGT RAIN  45  28  53 E6        29.72R
STANLEY          N/A     40  35  83 N6        29.72R
SALMON         CLOUDY    43  39  87 N13       29.68R
CHALLIS        LGT RAIN  46  37  71 NW14      29.66R
$$

IDZ002-004-006-007-026-241900-
NORTHERN IDAHO


CITY           SKY/WX    TMP DP  RH WIND       PRES   REMARKS
LEWISTON       PTSUNNY   56  37  49 CALM      29.82S
LOWELL           N/A     48  41  76 CALM      29.85R
COEUR D`ALENE  CLOUDY    48  28  46 W10G16    29.81S
MULLAN PASS    CLOUDY    31  24  75 VRB3      29.73R
$$


USA.gov is the U.S. government's official web portal to all federal, state and local government web resources and services.